This is the latest recevied weather packets stored in our database for station/object K3RUP-1. If no packets are shown the sender has not sent any weather packets the latest 10 day(s).
| Time | Temp. | Humidity | Pressure | Rain* | Wind** | Luminosity | Snow |
|---|---|---|---|---|---|---|---|
| 1777990566 | 23.33° C | 52% | 1011.4 hPa | 0 mm | - | 237 W/m² | - |
| 1777989959 | 22.22° C | 53% | 1011.4 hPa | 0 mm | - | 295 W/m² | - |
| 1777989656 | 21.67° C | 53% | 1011.5 hPa | 0 mm | - | 153 W/m² | - |
| 1777989352 | 21.67° C | 55% | 1011.4 hPa | 0 mm | - | 94 W/m² | - |
| 1777989049 | 21.67° C | 56% | 1011.3 hPa | 0 mm | - | 156 W/m² | - |
| 1777988745 | 21.11° C | 55% | 1011.5 hPa | 0 mm | - | 50 W/m² | - |
| 1777988443 | 21.11° C | 56% | 1011.5 hPa | 0 mm | - | 60 W/m² | - |
| 1777988139 | 21.11° C | 56% | 1011.3 hPa | 0 mm | - | 63 W/m² | - |
| 1777987835 | 21.11° C | 57% | 1011.7 hPa | 0 mm | - | 49 W/m² | - |
| 1777987532 | 20.56° C | 57% | 1011.9 hPa | 0 mm | - | 51 W/m² | - |
| 1777987230 | 20.56° C | 57% | 1011.8 hPa | 0 mm | - | 49 W/m² | - |
| 1777986926 | 20° C | 58% | 1011.8 hPa | 0 mm | - | 46 W/m² | - |
| 1777986624 | 20° C | 58% | 1011.9 hPa | 0 mm | - | 46 W/m² | - |
| 1777986322 | 20° C | 60% | 1011.8 hPa | 0 mm | - | 50 W/m² | - |
| 1777986020 | 20° C | 59% | 1011.9 hPa | 0 mm | - | 52 W/m² | - |
| 1777985716 | 20° C | 58% | 1011.8 hPa | 0 mm | - | 46 W/m² | - |
| 1777985413 | 19.44° C | 60% | 1011.7 hPa | 0 mm | - | 46 W/m² | - |
| 1777985110 | 19.44° C | 60% | 1011.6 hPa | 0 mm | - | 47 W/m² | - |
| 1777984806 | 19.44° C | 61% | 1011.7 hPa | 0 mm | - | 43 W/m² | - |
| 1777984503 | 18.89° C | 61% | 1011.7 hPa | 0 mm | - | 89 W/m² | - |
| 1777984198 | 18.89° C | 61% | 1011.5 hPa | 0 mm | - | 95 W/m² | - |
| 1777983896 | 18.89° C | 62% | 1011.4 hPa | 0 mm | - | 61 W/m² | - |
| 1777983593 | 18.89° C | 62% | 1011.5 hPa | 0 mm | - | 53 W/m² | - |
| 1777983289 | 18.33° C | 61% | 1011.5 hPa | 0 mm | - | 42 W/m² | - |
| 1777982985 | 18.33° C | 61% | 1011.4 hPa | 0 mm | - | 48 W/m² | - |
* Rain latest hour (hover to see other rain measurements)
** Current wind speed in m/s (hover to see current wind gust speed)